AB634 CYQT-KMSP

Flight info

Callsign AB634
Flight time N/A
Altitude 19000
Route CYQT CYXL
Aircraft PC12/L-SDFGRY/S

Departure

Time 2026-04-30 01:25
Airport Thunder Bay International Airport (CYQT)

Arrival

Time N/A
Airport Minneapolis–Saint Paul International Airport / Wold–Chamberlain Field (KMSP)
Time Latitude Longitude Altitude Speed Heading
2026-04-30 01:17 48.37614 -89.31977 652 ft 0 kts 43°
2026-04-30 01:21 48.37620 -89.31968 654 ft 5 kts 54°
2026-04-30 01:21 48.37585 -89.31916 652 ft 11 kts 160°
2026-04-30 01:21 48.37573 -89.31908 652 ft 0 kts 151°
2026-04-30 01:22 48.37555 -89.31899 655 ft 8 kts 170°
2026-04-30 01:22 48.37469 -89.31871 652 ft 14 kts 159°
2026-04-30 01:22 48.37382 -89.31857 650 ft 12 kts 212°
2026-04-30 01:22 48.37350 -89.31948 651 ft 8 kts 242°
2026-04-30 01:23 48.37327 -89.32022 651 ft 10 kts 250°
2026-04-30 01:23 48.37308 -89.32123 651 ft 15 kts 255°
2026-04-30 01:23 48.37271 -89.32427 656 ft 43 kts 237°
2026-04-30 01:23 48.37120 -89.32959 653 ft 55 kts 247°
2026-04-30 01:24 48.37036 -89.33329 661 ft 14 kts 235°
2026-04-30 01:24 48.37040 -89.33253 660 ft 16 kts 72°
2026-04-30 01:24 48.37082 -89.33088 658 ft 36 kts 64°
2026-04-30 01:24 48.37230 -89.32447 656 ft 91 kts 71°
2026-04-30 01:25 48.37467 -89.31397 747 ft 114 kts 70°
2026-04-30 01:25 48.37696 -89.30206 1140 ft 121 kts 71°
2026-04-30 01:25 48.37929 -89.28956 1586 ft 134 kts 73°
2026-04-30 01:25 48.38285 -89.27627 2189 ft 138 kts 48°
2026-04-30 01:26 48.39130 -89.27196 2929 ft 132 kts 348°
2026-04-30 01:26 48.39816 -89.28041 3662 ft 130 kts 309°
2026-04-30 01:26 48.40404 -89.29088 4327 ft 131 kts 314°
2026-04-30 01:26 48.41001 -89.30120 4985 ft 131 kts 313°
2026-04-30 01:27 48.41362 -89.31357 5574 ft 138 kts 272°
2026-04-30 01:27 48.41198 -89.32782 6228 ft 138 kts 264°
2026-04-30 01:27 48.41076 -89.34212 6877 ft 137 kts 265°
2026-04-30 01:27 48.40952 -89.35633 7500 ft 136 kts 265°
2026-04-30 01:28 48.40834 -89.37046 8129 ft 135 kts 265°
2026-04-30 01:28 48.40723 -89.38452 8752 ft 134 kts 265°
2026-04-30 01:28 48.40680 -89.39845 9314 ft 135 kts 287°
2026-04-30 01:28 48.41359 -89.40765 9952 ft 142 kts 342°
2026-04-30 01:29 48.42369 -89.40785 10470 ft 146 kts 350°
2026-04-30 01:29 48.43314 -89.41179 11022 ft 142 kts 332°
2026-04-30 01:29 48.44117 -89.42025 11579 ft 142 kts 316°
2026-04-30 01:29 48.44856 -89.43017 12142 ft 143 kts 316°
2026-04-30 01:30 48.45596 -89.44041 12717 ft 146 kts 316°
2026-04-30 01:30 48.46342 -89.45090 13297 ft 148 kts 316°
2026-04-30 01:30 48.47099 -89.46161 13877 ft 150 kts 317°
2026-04-30 01:30 48.47861 -89.47242 14422 ft 151 kts 317°
2026-04-30 01:31 48.48633 -89.48336 14861 ft 154 kts 317°
2026-04-30 01:31 48.49414 -89.49444 15332 ft 155 kts 317°
2026-04-30 01:31 48.50201 -89.50560 15800 ft 156 kts 317°
2026-04-30 01:31 48.50984 -89.51673 16252 ft 157 kts 317°
2026-04-30 01:32 48.51787 -89.52812 16701 ft 159 kts 317°
2026-04-30 01:32 48.52595 -89.53961 17153 ft 161 kts 317°
2026-04-30 01:32 48.53414 -89.55124 17602 ft 163 kts 317°
2026-04-30 01:32 48.54241 -89.56300 18070 ft 164 kts 317°
2026-04-30 01:33 48.55076 -89.57489 18548 ft 165 kts 317°
2026-04-30 01:33 48.55918 -89.58687 18972 ft 167 kts 317°
2026-04-30 01:33 48.56800 -89.59942 19125 ft 186 kts 317°
2026-04-30 01:33 48.57799 -89.61360 19135 ft 208 kts 317°
2026-04-30 01:34 48.58891 -89.62918 19139 ft 226 kts 317°
2026-04-30 01:34 48.60068 -89.64598 19145 ft 238 kts 317°
2026-04-30 01:34 48.61299 -89.66355 19141 ft 248 kts 317°
2026-04-30 01:34 48.62570 -89.68172 19136 ft 254 kts 317°
2026-04-30 01:35 48.63855 -89.70011 19135 ft 259 kts 317°
2026-04-30 01:35 48.65170 -89.71891 19137 ft 262 kts 317°
2026-04-30 01:35 48.66498 -89.73795 19136 ft 264 kts 317°
2026-04-30 01:35 48.67835 -89.75709 19137 ft 265 kts 317°
2026-04-30 01:36 48.69175 -89.77631 19137 ft 266 kts 317°
2026-04-30 01:36 48.70519 -89.79562 19131 ft 267 kts 317°
2026-04-30 01:36 48.71869 -89.81500 19136 ft 267 kts 317°
2026-04-30 01:36 48.73225 -89.83449 19140 ft 267 kts 317°
2026-04-30 01:37 48.74556 -89.85366 19136 ft 267 kts 317°
2026-04-30 01:37 48.75906 -89.87308 19138 ft 267 kts 317°
2026-04-30 01:37 48.77260 -89.89259 19137 ft 268 kts 317°
2026-04-30 01:37 48.78625 -89.91227 19139 ft 273 kts 317°
2026-04-30 01:38 48.80008 -89.93224 19136 ft 276 kts 317°
2026-04-30 01:38 48.81404 -89.95239 19140 ft 277 kts 317°
2026-04-30 01:38 48.82803 -89.97261 19138 ft 278 kts 317°
2026-04-30 01:38 48.84207 -89.99293 19143 ft 279 kts 317°
2026-04-30 01:39 48.85614 -90.01331 19136 ft 280 kts 317°
2026-04-30 01:39 48.87023 -90.03371 19139 ft 280 kts 317°
2026-04-30 01:39 48.88434 -90.05418 19141 ft 280 kts 317°
2026-04-30 01:39 48.89846 -90.07468 19139 ft 281 kts 317°
2026-04-30 01:40 48.91239 -90.09492 19141 ft 280 kts 317°
2026-04-30 01:40 48.92652 -90.11545 19137 ft 281 kts 317°
2026-04-30 01:40 48.94062 -90.13598 19136 ft 281 kts 317°
2026-04-30 01:40 48.95473 -90.15651 19138 ft 281 kts 317°
2026-04-30 01:41 48.96885 -90.17709 19136 ft 281 kts 317°
2026-04-30 01:41 48.98295 -90.19766 19137 ft 281 kts 317°
2026-04-30 01:41 48.99705 -90.21824 19138 ft 281 kts 317°
2026-04-30 01:41 49.01116 -90.23886 19136 ft 281 kts 317°
2026-04-30 01:42 49.02526 -90.25949 19136 ft 281 kts 317°
2026-04-30 01:42 49.03935 -90.28009 19136 ft 281 kts 317°
2026-04-30 01:42 49.05341 -90.30068 19136 ft 281 kts 317°
2026-04-30 01:42 49.06731 -90.32107 19140 ft 280 kts 317°
2026-04-30 01:43 49.08138 -90.34171 19138 ft 280 kts 317°
2026-04-30 01:43 49.09544 -90.36235 19139 ft 280 kts 317°
2026-04-30 01:43 49.10946 -90.38297 19139 ft 280 kts 317°
2026-04-30 01:43 49.12354 -90.40367 19140 ft 280 kts 317°
2026-04-30 01:44 49.13755 -90.42428 19139 ft 280 kts 317°
2026-04-30 01:44 49.15157 -90.44494 19140 ft 280 kts 317°
2026-04-30 01:44 49.16557 -90.46556 19139 ft 280 kts 317°
2026-04-30 01:44 49.17956 -90.48623 19142 ft 280 kts 317°
2026-04-30 01:45 49.19356 -90.50691 19142 ft 280 kts 317°
2026-04-30 01:45 49.20482 -90.52354 19144 ft 280 kts 317°